DAL042 OBBI-OMDB

Flight info

Callsign DAL042
Flight time 0h 56m
Altitude 25000
Route BHR N697 SODAK P559 VUTEB
Aircraft B738/M-SDE2E3FGHIRWXY/LB1

Departure

Time 2026-04-25 10:57
Airport Bahrain International Airport (OBBI)

Arrival

Time 2026-04-25 11:54
Airport Dubai International Airport (OMDB)
Time Latitude Longitude Altitude Speed Heading
2026-04-25 10:39 26.26411 50.63766 16 ft 0 kts 211°
2026-04-25 10:50 26.26415 50.63769 16 ft 2 kts 211°
2026-04-25 10:51 26.26429 50.63779 17 ft 2 kts 211°
2026-04-25 10:51 26.26443 50.63789 17 ft 2 kts 211°
2026-04-25 10:51 26.26458 50.63798 18 ft 2 kts 192°
2026-04-25 10:51 26.26472 50.63797 18 ft 1 kts 130°
2026-04-25 10:52 26.26476 50.63792 18 ft 0 kts 121°
2026-04-25 10:53 26.26475 50.63792 17 ft 0 kts 121°
2026-04-25 10:53 26.26447 50.63849 17 ft 16 kts 114°
2026-04-25 10:53 26.26434 50.63977 15 ft 17 kts 72°
2026-04-25 10:53 26.26444 50.64101 14 ft 16 kts 111°
2026-04-25 10:54 26.26384 50.64216 14 ft 20 kts 122°
2026-04-25 10:54 26.26330 50.64311 15 ft 23 kts 122°
2026-04-25 10:54 26.26202 50.64530 14 ft 27 kts 124°
2026-04-25 10:54 26.26099 50.64709 15 ft 28 kts 122°
2026-04-25 10:55 26.26028 50.64884 15 ft 13 kts 95°
2026-04-25 10:55 26.26032 50.64925 16 ft 0 kts 77°
2026-04-25 10:56 26.26035 50.64936 16 ft 7 kts 70°
2026-04-25 10:56 26.26101 50.64991 17 ft 14 kts
2026-04-25 10:57 26.26175 50.64928 16 ft 15 kts 303°
2026-04-25 10:57 26.26370 50.64594 15 ft 97 kts 303°
2026-04-25 10:57 26.26884 50.63715 106 ft 167 kts 303°
2026-04-25 10:57 26.27576 50.62501 699 ft 196 kts 308°
2026-04-25 10:58 26.28447 50.61199 1376 ft 221 kts 310°
2026-04-25 10:58 26.29679 50.60058 2036 ft 242 kts 341°
2026-04-25 10:58 26.31298 50.59617 3166 ft 239 kts 347°
2026-04-25 10:58 26.32935 50.59226 3678 ft 241 kts 347°
2026-04-25 10:59 26.34612 50.58861 3975 ft 248 kts 347°
2026-04-25 10:59 26.36281 50.58516 4047 ft 249 kts 347°
2026-04-25 10:59 26.38043 50.58158 4460 ft 263 kts 347°
2026-04-25 10:59 26.39856 50.57810 5382 ft 267 kts 347°
2026-04-25 11:00 26.41711 50.57481 6251 ft 273 kts 347°
2026-04-25 11:00 26.43609 50.57164 7045 ft 279 kts 347°
2026-04-25 11:00 26.45561 50.56928 7865 ft 288 kts
2026-04-25 11:00 26.47504 50.57615 8692 ft 301 kts 28°
2026-04-25 11:01 26.49086 50.59180 9539 ft 310 kts 52°
2026-04-25 11:01 26.50309 50.61176 10347 ft 315 kts 56°
2026-04-25 11:01 26.51516 50.63294 10797 ft 335 kts 57°
2026-04-25 11:01 26.52786 50.65559 10977 ft 360 kts 57°
2026-04-25 11:02 26.54156 50.68000 11280 ft 379 kts 57°
2026-04-25 11:02 26.55576 50.70520 11889 ft 386 kts 57°
2026-04-25 11:02 26.57018 50.73063 12640 ft 389 kts 57°
2026-04-25 11:02 26.58477 50.75628 13341 ft 394 kts 57°
2026-04-25 11:03 26.59961 50.78229 13994 ft 399 kts 57°
2026-04-25 11:03 26.61466 50.80864 14599 ft 403 kts 57°
2026-04-25 11:03 26.62987 50.83527 15196 ft 409 kts 57°
2026-04-25 11:03 26.64521 50.86215 15816 ft 413 kts 57°
2026-04-25 11:04 26.66074 50.88937 16404 ft 418 kts 57°
2026-04-25 11:04 26.67627 50.91661 16979 ft 423 kts 57°
2026-04-25 11:04 26.69215 50.94448 17558 ft 428 kts 57°
2026-04-25 11:04 26.70298 50.96351 17947 ft 431 kts 57°
2026-04-25 11:05 26.72446 51.00127 18625 ft 437 kts 57°
2026-04-25 11:05 26.74086 51.03010 19118 ft 441 kts 56°
2026-04-25 11:05 26.75170 51.04938 19460 ft 444 kts 59°
2026-04-25 11:05 26.76316 51.08153 19917 ft 449 kts 79°
2026-04-25 11:06 26.76548 51.11627 20425 ft 449 kts 96°
2026-04-25 11:06 26.75899 51.15018 20911 ft 446 kts 112°
2026-04-25 11:06 26.74844 51.18303 21374 ft 450 kts 114°
2026-04-25 11:06 26.73731 51.21590 21786 ft 455 kts 114°
2026-04-25 11:07 26.72606 51.24919 22236 ft 459 kts 114°
2026-04-25 11:07 26.71490 51.28283 22683 ft 462 kts 113°
2026-04-25 11:07 26.70386 51.31675 23108 ft 466 kts 113°
2026-04-25 11:07 26.69286 51.35098 23523 ft 470 kts 112°
2026-04-25 11:08 26.68194 51.38507 23881 ft 473 kts 112°
2026-04-25 11:08 26.67080 51.41976 24282 ft 474 kts 113°
2026-04-25 11:08 26.65959 51.45454 24489 ft 481 kts 113°
2026-04-25 11:08 26.64814 51.49008 24549 ft 491 kts 112°
2026-04-25 11:09 26.63648 51.52632 24605 ft 499 kts 112°
2026-04-25 11:09 26.62464 51.56315 24649 ft 507 kts 112°
2026-04-25 11:09 26.61264 51.60049 24691 ft 513 kts 112°
2026-04-25 11:09 26.60050 51.63826 24723 ft 519 kts 112°
2026-04-25 11:10 26.58819 51.67646 24809 ft 522 kts 112°
2026-04-25 11:10 26.58006 51.70168 24878 ft 522 kts 112°
2026-04-25 11:10 26.56348 51.75273 24924 ft 522 kts 112°
2026-04-25 11:10 26.55124 51.79042 24929 ft 523 kts 112°
2026-04-25 11:11 26.53893 51.82864 24934 ft 522 kts 112°
2026-04-25 11:11 26.52665 51.86681 24932 ft 522 kts 112°
2026-04-25 11:11 26.51426 51.90488 24933 ft 522 kts 113°
2026-04-25 11:11 26.50165 51.94280 24934 ft 521 kts 113°
2026-04-25 11:12 26.48896 51.98065 24929 ft 521 kts 113°
2026-04-25 11:12 26.47622 52.01860 24927 ft 520 kts 113°
2026-04-25 11:12 26.46359 52.05634 24928 ft 520 kts 113°
2026-04-25 11:12 26.45095 52.09420 24930 ft 519 kts 113°
2026-04-25 11:13 26.43837 52.13188 24926 ft 518 kts 113°
2026-04-25 11:13 26.42576 52.16956 24927 ft 518 kts 113°
2026-04-25 11:13 26.41312 52.20721 24929 ft 517 kts 113°
2026-04-25 11:13 26.40054 52.24468 24927 ft 516 kts 113°
2026-04-25 11:14 26.38807 52.28175 24924 ft 516 kts 113°
2026-04-25 11:14 26.37551 52.31911 24923 ft 515 kts 113°
2026-04-25 11:14 26.36290 52.35657 24921 ft 514 kts 113°
2026-04-25 11:14 26.35031 52.39382 24920 ft 514 kts 114°
2026-04-25 11:15 26.33687 52.43067 24921 ft 512 kts 116°
2026-04-25 11:15 26.32273 52.46713 24924 ft 512 kts 117°
2026-04-25 11:15 26.30841 52.50342 24922 ft 511 kts 117°
2026-04-25 11:15 26.29410 52.53987 24919 ft 512 kts 116°
2026-04-25 11:16 26.26592 52.61293 24920 ft 513 kts 116°
2026-04-25 11:16 26.25191 52.64953 24923 ft 514 kts 116°
2026-04-25 11:16 26.23788 52.68609 24916 ft 514 kts 116°
2026-04-25 11:17 26.22383 52.72272 24919 ft 514 kts 116°
2026-04-25 11:17 26.20978 52.75936 24917 ft 514 kts 116°
2026-04-25 11:17 26.19574 52.79596 24916 ft 514 kts 116°
2026-04-25 11:17 26.18188 52.83208 24911 ft 514 kts 116°
2026-04-25 11:18 26.16782 52.86867 24910 ft 514 kts 116°
2026-04-25 11:18 26.15377 52.90522 24913 ft 513 kts 116°
2026-04-25 11:18 26.13968 52.94182 24907 ft 513 kts 116°
2026-04-25 11:18 26.12564 52.97828 24911 ft 513 kts 116°
2026-04-25 11:19 26.11157 53.01476 24904 ft 513 kts 116°
2026-04-25 11:19 26.09755 53.05124 24907 ft 513 kts 116°
2026-04-25 11:19 26.08391 53.08782 24908 ft 512 kts 115°
2026-04-25 11:19 26.07048 53.12457 24905 ft 512 kts 115°
2026-04-25 11:20 26.05715 53.16132 24913 ft 512 kts 115°
2026-04-25 11:20 26.04380 53.19803 24903 ft 512 kts 115°
2026-04-25 11:20 26.03042 53.23464 24915 ft 511 kts 115°
2026-04-25 11:20 26.01696 53.27132 24897 ft 511 kts 115°
2026-04-25 11:21 26.00347 53.30794 24906 ft 511 kts 115°
2026-04-25 11:21 25.98999 53.34446 24905 ft 511 kts 115°
2026-04-25 11:21 25.97685 53.38010 24834 ft 491 kts 115°
2026-04-25 11:21 25.96430 53.41420 24625 ft 463 kts 115°
2026-04-25 11:22 25.95231 53.44668 24033 ft 449 kts 115°
2026-04-25 11:22 25.94428 53.46836 23459 ft 448 kts 115°
2026-04-25 11:22 25.92858 53.51092 22443 ft 448 kts 114°
2026-04-25 11:22 25.91737 53.54311 21899 ft 443 kts 113°
2026-04-25 11:23 25.90658 53.57494 21366 ft 437 kts 113°
2026-04-25 11:23 25.89591 53.60648 20792 ft 434 kts 112°
2026-04-25 11:23 25.88529 53.63763 20209 ft 431 kts 112°
2026-04-25 11:23 25.87466 53.66859 19655 ft 427 kts 112°
2026-04-25 11:24 25.86407 53.69933 19125 ft 424 kts 112°
2026-04-25 11:24 25.85356 53.72971 18606 ft 420 kts 112°
2026-04-25 11:24 25.84308 53.75985 18101 ft 415 kts 114°
2026-04-25 11:24 25.83279 53.78935 17737 ft 405 kts 114°
2026-04-25 11:25 25.82279 53.81800 17199 ft 400 kts 114°
2026-04-25 11:25 25.81275 53.84674 16604 ft 398 kts 114°
2026-04-25 11:25 25.80277 53.87528 16044 ft 396 kts 113°
2026-04-25 11:25 25.79284 53.90368 15521 ft 392 kts 113°
2026-04-25 11:26 25.78300 53.93183 15093 ft 388 kts 113°
2026-04-25 11:26 25.77312 53.96007 14982 ft 395 kts 113°
2026-04-25 11:26 25.76322 53.98836 14906 ft 391 kts 113°
2026-04-25 11:26 25.75346 54.01635 14899 ft 388 kts 112°
2026-04-25 11:27 25.74438 54.04460 14898 ft 390 kts 110°
2026-04-25 11:27 25.73569 54.07314 14895 ft 390 kts 110°
2026-04-25 11:27 25.72711 54.10166 14895 ft 390 kts 110°
2026-04-25 11:27 25.72140 54.12058 14894 ft 389 kts 110°
2026-04-25 11:28 25.70994 54.15822 14848 ft 385 kts 110°
2026-04-25 11:28 25.70136 54.18616 14487 ft 381 kts 110°
2026-04-25 11:28 25.69281 54.21387 13965 ft 380 kts 110°
2026-04-25 11:28 25.68425 54.24156 13383 ft 380 kts 110°
2026-04-25 11:29 25.67568 54.26925 13156 ft 382 kts 110°
2026-04-25 11:29 25.66706 54.29706 13047 ft 380 kts 110°
2026-04-25 11:29 25.65846 54.32480 13008 ft 380 kts 110°
2026-04-25 11:29 25.64988 54.35257 12998 ft 378 kts 110°
2026-04-25 11:30 25.64172 54.38033 12993 ft 378 kts 105°
2026-04-25 11:30 25.63776 54.40877 12874 ft 370 kts 95°
2026-04-25 11:30 25.63629 54.43644 12759 ft 349 kts 94°
2026-04-25 11:30 25.63517 54.46267 12652 ft 332 kts 94°
2026-04-25 11:31 25.63408 54.48765 12502 ft 319 kts 94°
2026-04-25 11:31 25.63292 54.51200 12235 ft 315 kts 94°
2026-04-25 11:31 25.63170 54.53598 11882 ft 315 kts 94°
2026-04-25 11:31 25.63041 54.56018 11536 ft 314 kts 94°
2026-04-25 11:32 25.62908 54.58435 11209 ft 313 kts 95°
2026-04-25 11:32 25.62773 54.60839 10893 ft 312 kts 95°
2026-04-25 11:32 25.62638 54.63231 10582 ft 310 kts 95°
2026-04-25 11:32 25.62502 54.65622 10264 ft 309 kts 95°
2026-04-25 11:33 25.62366 54.68001 10054 ft 309 kts 95°
2026-04-25 11:33 25.62228 54.70395 10025 ft 313 kts 95°
2026-04-25 11:33 25.62092 54.72768 10001 ft 310 kts 95°
2026-04-25 11:33 25.61955 54.75145 9988 ft 308 kts 95°
2026-04-25 11:34 25.61818 54.77511 9990 ft 308 kts 94°
2026-04-25 11:34 25.61680 54.79882 9997 ft 309 kts 95°
2026-04-25 11:34 25.61542 54.82258 9997 ft 309 kts 95°
2026-04-25 11:34 25.61403 54.84633 9996 ft 308 kts 95°
2026-04-25 11:35 25.61118 54.86981 9985 ft 307 kts 109°
2026-04-25 11:35 25.60313 54.89156 10003 ft 305 kts 116°
2026-04-25 11:35 25.59438 54.91295 9996 ft 305 kts 116°
2026-04-25 11:35 25.58562 54.93440 9997 ft 305 kts 116°
2026-04-25 11:36 25.57708 54.95560 9997 ft 305 kts 115°
2026-04-25 11:36 25.56854 54.97710 9988 ft 304 kts 115°
2026-04-25 11:36 25.56015 54.99835 9786 ft 298 kts 115°
2026-04-25 11:36 25.55184 55.01944 9339 ft 300 kts 115°
2026-04-25 11:37 25.54319 55.04056 8953 ft 300 kts 118°
2026-04-25 11:37 25.53313 55.06073 8640 ft 298 kts 121°
2026-04-25 11:37 25.52263 55.08045 8342 ft 296 kts 122°
2026-04-25 11:37 25.51218 55.10003 8064 ft 295 kts 122°
2026-04-25 11:38 25.50178 55.11969 8025 ft 297 kts 121°
2026-04-25 11:38 25.49146 55.13941 7999 ft 295 kts 121°
2026-04-25 11:38 25.48137 55.15879 7994 ft 294 kts 121°
2026-04-25 11:38 25.47116 55.17843 7987 ft 295 kts 121°
2026-04-25 11:39 25.46082 55.19808 7988 ft 294 kts 123°
2026-04-25 11:39 25.44829 55.21600 7994 ft 293 kts 133°
2026-04-25 11:39 25.43448 55.23253 7994 ft 293 kts 135°
2026-04-25 11:39 25.42048 55.24890 7991 ft 293 kts 135°
2026-04-25 11:40 25.41126 55.25982 7992 ft 293 kts 134°
2026-04-25 11:40 25.39300 55.28187 7994 ft 293 kts 134°
2026-04-25 11:40 25.37932 55.29858 7995 ft 293 kts 134°
2026-04-25 11:40 25.36566 55.31532 7991 ft 293 kts 133°
2026-04-25 11:41 25.35238 55.33246 7988 ft 294 kts 127°
2026-04-25 11:41 25.34124 55.35141 7996 ft 291 kts 122°
2026-04-25 11:41 25.33119 55.37028 8001 ft 279 kts 122°
2026-04-25 11:41 25.32157 55.38845 7925 ft 268 kts 122°
2026-04-25 11:42 25.31226 55.40578 7732 ft 258 kts 123°
2026-04-25 11:42 25.30298 55.42269 7362 ft 258 kts 123°
2026-04-25 11:42 25.29359 55.43966 6987 ft 258 kts 123°
2026-04-25 11:42 25.28419 55.45649 6670 ft 256 kts 123°
2026-04-25 11:43 25.27483 55.47327 6286 ft 257 kts 123°
2026-04-25 11:43 25.26553 55.49003 6049 ft 255 kts 123°
2026-04-25 11:43 25.25634 55.50650 5992 ft 248 kts 122°
2026-04-25 11:43 25.24735 55.52269 6008 ft 246 kts 122°
2026-04-25 11:44 25.23830 55.53896 6011 ft 251 kts 122°
2026-04-25 11:44 25.22908 55.55556 6013 ft 257 kts 122°
2026-04-25 11:44 25.21962 55.57254 6019 ft 261 kts 123°
2026-04-25 11:44 25.21013 55.58958 6000 ft 260 kts 123°
2026-04-25 11:45 25.20069 55.60652 5986 ft 258 kts 123°
2026-04-25 11:45 25.19132 55.62332 5995 ft 256 kts 123°
2026-04-25 11:45 25.18205 55.64000 5988 ft 253 kts 122°
2026-04-25 11:45 25.17289 55.65650 5979 ft 250 kts 123°
2026-04-25 11:46 25.16387 55.67268 5774 ft 245 kts 122°
2026-04-25 11:46 25.15512 55.68837 5429 ft 243 kts 122°
2026-04-25 11:46 25.14419 55.70212 5114 ft 235 kts 153°
2026-04-25 11:46 25.12918 55.70534 5002 ft 211 kts 195°
2026-04-25 11:47 25.11742 55.69777 4783 ft 193 kts 236°
2026-04-25 11:47 25.11365 55.68396 4292 ft 191 kts 272°
2026-04-25 11:47 25.11387 55.66945 3931 ft 187 kts 272°
2026-04-25 11:47 25.11388 55.65500 3473 ft 188 kts 272°
2026-04-25 11:48 25.11375 55.64063 3071 ft 188 kts 272°
2026-04-25 11:48 25.11365 55.62615 2652 ft 187 kts 278°
2026-04-25 11:48 25.11774 55.61293 2265 ft 182 kts 299°
2026-04-25 11:48 25.12348 55.60084 1900 ft 178 kts 299°
2026-04-25 11:49 25.12919 55.58944 1792 ft 157 kts 301°
2026-04-25 11:49 25.13447 55.57947 1738 ft 147 kts 302°
2026-04-25 11:49 25.13995 55.56936 1736 ft 166 kts 303°
2026-04-25 11:49 25.14669 55.55705 2009 ft 205 kts 302°
2026-04-25 11:50 25.15423 55.54324 2251 ft 208 kts 302°
2026-04-25 11:50 25.16152 55.53004 2248 ft 194 kts 303°
2026-04-25 11:50 25.16853 55.51748 2302 ft 190 kts 303°
2026-04-25 11:50 25.17530 55.50506 2217 ft 189 kts 302°
2026-04-25 11:51 25.18214 55.49255 2010 ft 190 kts 302°
2026-04-25 11:51 25.18882 55.48039 1780 ft 176 kts 303°
2026-04-25 11:51 25.19474 55.46962 1557 ft 156 kts 303°
2026-04-25 11:51 25.20017 55.45976 1357 ft 147 kts 303°
2026-04-25 11:52 25.20553 55.45005 1191 ft 151 kts 302°
2026-04-25 11:52 25.21096 55.44021 1005 ft 149 kts 302°
2026-04-25 11:52 25.21611 55.43034 832 ft 149 kts 302°
2026-04-25 11:52 25.22150 55.42057 609 ft 149 kts 303°
2026-04-25 11:53 25.22703 55.41094 410 ft 147 kts 301°
2026-04-25 11:53 25.23054 55.40449 276 ft 148 kts 301°
2026-04-25 11:53 25.23585 55.39487 90 ft 144 kts 302°
2026-04-25 11:53 25.24083 55.38598 21 ft 123 kts 301°
2026-04-25 11:54 25.24417 55.37995 21 ft 62 kts 302°
2026-04-25 11:54 25.24590 55.37643 21 ft 39 kts 287°
2026-04-25 11:54 25.24618 55.37344 21 ft 0 kts 271°
2026-04-25 11:55 25.24618 55.37343 21 ft 1 kts 271°
2026-04-25 11:55 25.24622 55.37306 23 ft 8 kts 282°
2026-04-25 11:55 25.24646 55.37227 21 ft 14 kts 296°
2026-04-25 11:55 25.24709 55.37115 23 ft 20 kts 298°
2026-04-25 11:56 25.24785 55.36979 21 ft 20 kts 300°
2026-04-25 11:56 25.24847 55.36842 21 ft 20 kts 291°
2026-04-25 11:56 25.24880 55.36697 23 ft 19 kts 287°
2026-04-25 11:56 25.24943 55.36571 23 ft 19 kts 302°
2026-04-25 11:57 25.25008 55.36450 21 ft 18 kts 300°
2026-04-25 11:57 25.25071 55.36335 22 ft 17 kts 301°
2026-04-25 11:57 25.25132 55.36225 23 ft 16 kts 301°
2026-04-25 11:57 25.25190 55.36120 22 ft 16 kts 301°
2026-04-25 11:58 25.25249 55.36014 21 ft 16 kts 302°
2026-04-25 11:58 25.25306 55.35914 22 ft 15 kts 302°
2026-04-25 11:58 25.25360 55.35816 21 ft 15 kts 301°
2026-04-25 11:58 25.25413 55.35719 21 ft 14 kts 302°
2026-04-25 11:59 25.25466 55.35624 22 ft 15 kts 301°
2026-04-25 11:59 25.25523 55.35521 22 ft 16 kts 302°
2026-04-25 11:59 25.25580 55.35417 21 ft 15 kts 302°
2026-04-25 12:00 25.25695 55.35211 21 ft 16 kts 302°
2026-04-25 12:00 25.25753 55.35104 22 ft 16 kts 301°
2026-04-25 12:00 25.25868 55.34892 21 ft 16 kts 295°
2026-04-25 12:01 25.25874 55.34775 21 ft 15 kts 247°
2026-04-25 12:01 25.25794 55.34709 21 ft 10 kts 212°
2026-04-25 12:01 25.25765 55.34688 21 ft 0 kts 213°